Погода в Ленске

Хотите узнать прогноз погоды в Ленске? Тогда Вам сюда: Погода в Ленске

Поиск расширенной информации на нашем сайте:

Полезная информация:

Новости сайта



02.01.2020
Опубликован Долгосрочный прогноз погоды по городам России и ближнего зарубежья на январь 2020 года.
Карты: Прогноз на январь и февраль 2020 года, Сравнение прогнозируемой аномалии приземной температуры воздуха на январь 2020 года по разным моделям.




Погода в Ленске - сегодня

Время (UTC), дата Ветер
(°,м/с) 
Видим.   Явления Облачность Т
(°С)
Тd
(°С)
f(%) Тe
(°С)
Pmin
(гПа)
dP
(гПа)
Po
(мм)
O2
(г/м3)
Тmin Tmax R s Состояние
почвы
00 23.11.20 270 (З) 4000 м  слаб. ливневой снег  10/9 840 м кучево-дожд., средняя 
[Cb cap|Ac und]
-3.4 -4.8 90 -6  1011  1.7  735  301  -3.5    30  равномерный
сухой снег
100% 
03 23.11.20 280 (З) 20000 м  слаб. ливневой снег  10/8 800 м кучево-дожд., средняя 
[Cb cap|Ac und]
-5.2 -7.7 83 -7  1013.3  2.1  737  304  -5.3         
06 23.11.20 320 (СЗ) 20000 м  слаб. ливневой снег  10/8 660 м кучево-дожд., средняя 
[Cb cap|Ac und]
-5.3 -8.2 80 -7  1014.7  1.3  738  304           
09 23.11.20 280 (З) 20000 м  {ливн. осадки}  8/1 600 м кучево-дожд., средняя, верхняя 
[Cb cap|Ac trans|Ci fib]
-9.3 -10 95 -11  1016.6  1.4  739  309           
12 23.11.20 270 (З) 20000 м  {ливн. осадки}  8/0 средняя, верхняя 
[Ac trans|Ci fib]
-14.8 -16.1 90 -15  1018.9  1.5  740  317    -3.3  0.2     
15 23.11.20 нст () 20000 м    10/0 средняя, верхняя 
[Ac trans|Cs]
-16.6 -17.9 90 -17  1020.2  1.1  741  319           
18 23.11.20 нст () 20000 м    10/0 средняя, верхняя 
[Ac trans|Cs]
-15.1 -16.4 90 -15  1021.2  1.2  742  318           
21 23.11.20 260 (З) 20000 м    10/3 1000 м верхняя 
[Sc|Cs]
-14.7 -16 90 -15  1022.4  1.1  743  318           
00 24.11.20 тихо ()   4000 м  слаб. снег [диам. изморози 4 мм]  10/9 450 м верхняя 
[Sc|Cs]
-14 -15.3 90 -14  1024.7  2.3  744  317  -17.5    0.3  31  равномерный
сухой снег
100% 
18 24.11.20 260 (З) 20000 м  слаб. снег  10/8 420 м верхняя 
[Sc|Cs]
-15.4 -17.3 85 -20  1034.3  1.3  751  322           
21 24.11.20 240 (ЮЗ) 20000 м  слаб. снег  10/6 750 м верхняя 
[Sc|Cs]
-15.8 -18.5 80 -21  1035  0.6  752  323           
00 25.11.20 260 (З) 20000 м  слаб. снег  10/8 450 м верхняя 
[Sc|Cs]
-18.2 -20.1 85 -22  1036.3  753  326  -18.4    0.2  30  равномерный
сухой снег
100% 
03 25.11.20 270 (З) 20000 м  {снег}  6/3 600 м средняя, верхняя 
[Sc|Ac trans|Ci fib]
-17.8 -20.4 80 -23  1037.5  1.1  753  326  -19.5         
06 25.11.20 240 (ЮЗ) 20000 м  слаб. снег  8/4 750 м средняя, верхняя 
[Sc|Ac trans|Cs]
-15.8 -17.7 85 -21  1037.4  0.2  754  324           
12 25.11.20 270 (З) 50000 м  в посл. час снег  8/3 600 м средняя, верхняя 
[Sc|Ac trans|Cs]
-17 -18.9 85 -22  1039.2  0.5  755  326    -15.3  0.2     
15 25.11.20 250 (З) 20000 м  слаб. снег  10/10 630 м 
[Sc]
-15.1 -17.1 85 -19  1039  0.1  755  323           
18 25.11.20 250 (З) 20000 м  слаб. снег  10/10 600 м 
[Sc]
-13 -15 85 -18  1038.8  755  321           
21 25.11.20 240 (ЮЗ) 20000 м  слаб. снег  10/10 800 м 
[Sc]
-12.6 -14.6 85 -17  1038.5  -0.1  755  320           
00 26.11.20 250 (З) 20000 м  слаб. снег  10/8 960 м средняя 
[Sc|Ac und]
-12 -14 85 -15  1038.5  755  319  -17    0.0  30  равномерный
сухой снег
100% 
03 26.11.20 230 (ЮЗ) 20000 м  слаб. снег  10/8 870 м средняя 
[Sc|Ac und]
-11.5 -13.5 85 -16  1038.3  -0.1  755  319           
06 26.11.20 230 (ЮЗ) 50000 м  {снег}  10/8 1080 м средняя 
[Sc|Ac und]
-10.7 -12.7 85 -15  1038.2  -0.1  755  318           
09 26.11.20 250 (З) 20000 м    9/6 1000 м средняя 
[Sc|Ac trans]
-11 -13 85 -16  1038.6  0.4  755  318           
12 26.11.20 250 (З) 20000 м  слаб. снег  10/8 960 м средняя, верхняя 
[Sc|Ac trans|Ci fib]
-10.8 -12.8 85 -15  1038.9  0.3  755  318    -10.5  0.2     
15 26.11.20 260 (З) 20000 м  слаб. снег  10/8 900 м средняя, верхняя 
[Sc|Ac trans|Cs]
-11.2 -13.2 85 -14  1038.5  -0.4  755  318           
18 26.11.20 270 (З) 20000 м  слаб. снег  10/8 900 м средняя, верхняя 
[Sc|Ac trans|Cs]
-12 -14 85 -15  1038.5  -0.1  755  319           
Время (UTC), дата Ветер
(°,м/с) 
Видим.   Явления Облачность Т
(°С)
Тd
(°С)
f(%) Тe
(°С)
Pmin
(гПа)
dP
(гПа)
Po
(мм)
O2
(г/м3)
Тmin Tmax R s Состояние
почвы

Для получения пояснительной информации подведите курсор к названию столбца.

ПОГОДА в Ленске - архив

Всё, что Вы хотите узнать о погоде в Ленске - удобно и подробно!

Выберите нужную дату (начиная с 1 января 2019* года) и нажмите кнопку "Найти".
Будут отображены архивные сводки погоды по пункту Ленск, начиная с указанной даты.


Отображать данные в формате CSV (для использования в таблицах Excel)


Внимание! Наш архив погоды предназначен исключительно для личного некоммерческого использования в познавательных целях. Если Вам необходимы официальные справки о состоянии погоды (для производственных, юридических, коммерческих и т.п. целей), обращайтесь в органы Росгидромета.

*Примечание: данная дата относится к архиву по метеостанциям СССР (Россия, СНГ, Балтия).
Архив по метеостанциям Зарубежной Европы и Азии (кроме Китая) хранится 10 дней, по другим регионам земного шара (Китай, Африка, Америка, Австралия, Океания) - 1 день.

Ленск - район местоположения метеостанции


Название, широта, долгота, высота метеостанции:
Ленск 60.7°ш. 114.9°д. 234 м над ур. моря [Российская Федерация]

Дополнительная информация

В oтличие oт бoльшинства пoгoдных сайтoв мы публикуем пoдрoбную метеoинфoрмацию в детальнoм прoфессиoнальнoм фoрмате.

Характеристики температуры и влажнoсти вoздуха измеряются на высoте 2 м в тени вдали oт зданий и деревьев.
Скoрoсть ветра измеряется на высoте 10 м (на урoвне рoста челoвека скoрoсть ветра ниже в 1.5-2 раза). Если метеoстанция нахoдится в гoрoде или в лесу, тo скoрoсть ветра занижена на 2-4 м/с пo сравнению с oткрытым местoм. Скoрoсть ветра над акватoриями крупных рек и oзёр, а также на вершинах хoлмoв на 2-5 м/с выше, чем в oбычных услoвиях.
Атмoсфернoе давление в разных тoчках местнoсти мoжет значительнo oтличаться oт давления на метеoстанции, в зависимoсти oт услoвий рельефа (при пoдъёме на 10 м давление пoнижается примернo на 1 мм рт.ст.).